Location: Sungai Laei
(2.6000°N, 113.7167°E)
Time: 11:44:30
(UTC+00:00)

FUSE - Pass Details

Date: 22 May 2022
Orbit: 741 x 756 km, 25.0° (Epoch: 06 July)

Event Time Altitude Azimuth Distance (km) Brightness Sun altitude
Exits shadow 21:04:18 - 306° (NW) 2,386 6.2 -17.1°
Reaches altitude 10° 21:04:39 10° 306° (NW) 2,257 6.1 -17.1°
Maximum altitude 21:09:56 60° 26° (NNE) 848 4.4 -15.8°
Drops below altitude 10° 21:15:12 10° 106° (ESE) 2,250 7.2 -14.6°
Sets 21:17:41 0° 109° (ESE) 3,172 8.0 -14.0°
